Hourly Weather Golce

Today, 18 January, Monday

Time Temperature Precipitation Wind Pressure Humidity
00:00 -15°C° 0 mm 0 mps 740 mmHg 93%
01:00 -15°C° 0 mm 0 mps 740 mmHg 93%
02:00 -15°C° 0 mm 0 mps 740 mmHg 93%
03:00 -15°C° 0 mm 1 mps 740 mmHg 93%
04:00 -15°C° 0 mm 1 mps 740 mmHg 93%
05:00 -15°C° 0 mm 1 mps 740 mmHg 93%
06:00 -15°C° 0 mm 1 mps 739 mmHg 93%
07:00 -15°C° 0 mm 1 mps 740 mmHg 91%
08:00 -14°C° 0 mm 1 mps 740 mmHg 89%
09:00 -12°C° 0 mm 1 mps 740 mmHg 88%
10:00 -11°C° 0 mm 1 mps 740 mmHg 86%
11:00 -10°C° 0 mm 1 mps 740 mmHg 84%
12:00 -9°C° 0 mm 1 mps 740 mmHg 82%
13:00 -8°C° 0 mm 1 mps 739 mmHg 80%
14:00 -8°C° 0 mm 1 mps 739 mmHg 83%
15:00 -8°C° 0 mm 1 mps 739 mmHg 85%
16:00 -10°C° 0 mm 2 mps 739 mmHg 88%
17:00 -10°C° 0 mm 2 mps 739 mmHg 88%
18:00 -10°C° 0 mm 2 mps 738 mmHg 88%
19:00 -10°C° 0 mm 2 mps 738 mmHg 87%
20:00 -9°C° 0.1 mm 2 mps 738 mmHg 90%
21:00 -8°C° 0.1 mm 2 mps 738 mmHg 92%
22:00 -9°C° 0.1 mm 3 mps 738 mmHg 95%
23:00 -8°C° 0.2 mm 3 mps 738 mmHg 95%

Tomorrow, 19 January, Tuesday

Time Temperature Precipitation Wind Pressure Humidity
00:00 -8°C° 0.2 mm 3 mps 738 mmHg 95%
01:00 -7°C° 0.2 mm 3 mps 737 mmHg 95%
02:00 -8°C° 0.2 mm 4 mps 737 mmHg 96%
03:00 -7°C° 0.2 mm 4 mps 737 mmHg 96%
04:00 -5°C° 0.2 mm 4 mps 736 mmHg 96%
05:00 -4°C° 0.3 mm 4 mps 736 mmHg 96%
06:00 -4°C° 0.3 mm 4 mps 736 mmHg 96%
07:00 -4°C° 0.3 mm 4 mps 736 mmHg 97%
08:00 -3°C° 0.2 mm 4 mps 736 mmHg 96%
09:00 -4°C° 0.2 mm 5 mps 735 mmHg 96%
10:00 -2°C° 0.2 mm 5 mps 735 mmHg 96%
11:00 -2°C° 0 mm 5 mps 735 mmHg 95%
12:00 -2°C° 0 mm 4 mps 735 mmHg 94%
13:00 -2°C° 0 mm 4 mps 734 mmHg 93%
14:00 -2°C° 0.1 mm 4 mps 734 mmHg 94%
15:00 -2°C° 0.1 mm 5 mps 733 mmHg 94%
16:00 -4°C° 0.1 mm 5 mps 733 mmHg 94%
17:00 -4°C° 0.2 mm 6 mps 733 mmHg 94%
18:00 -4°C° 0.2 mm 6 mps 732 mmHg 93%
19:00 -4°C° 0.2 mm 7 mps 732 mmHg 93%
20:00 -4°C° 0.1 mm 6 mps 732 mmHg 93%
21:00 -4°C° 0.1 mm 6 mps 731 mmHg 93%
22:00 -3°C° 0.1 mm 6 mps 731 mmHg 93%
23:00 -3°C° 0.8 mm 6 mps 731 mmHg 94%

Day after tomorrow, 20 January, Wednesday

Time Temperature Precipitation Wind Pressure Humidity
00:00 -3°C° 0.8 mm 6 mps 730 mmHg 95%
01:00 -2°C° 0.8 mm 6 mps 730 mmHg 96%
02:00 -2°C° 0.5 mm 6 mps 730 mmHg 97%
03:00 -1°C° 0.5 mm 5 mps 730 mmHg 98%
04:00 0°C° 0.5 mm 5 mps 730 mmHg 98%
05:00 0°C° 0 mm 5 mps 730 mmHg 96%
06:00 -1°C° 0 mm 5 mps 730 mmHg 95%
07:00 -1°C° 0 mm 5 mps 730 mmHg 93%
08:00 -1°C° 0 mm 5 mps 730 mmHg 93%
09:00 -1°C° 0 mm 5 mps 731 mmHg 93%
10:00 0°C° 0 mm 5 mps 731 mmHg 93%
11:00 0°C° 0 mm 5 mps 731 mmHg 93%
12:00 -1°C° 0 mm 6 mps 731 mmHg 92%
13:00 +1°C° 0 mm 6 mps 730 mmHg 91%
14:00 -1°C° 0 mm 6 mps 730 mmHg 87%
15:00 -1°C° 0 mm 6 mps 730 mmHg 83%
16:00 -1°C° 0 mm 6 mps 730 mmHg 79%
17:00 -1°C° 0 mm 6 mps 730 mmHg 77%
18:00 -1°C° 0 mm 6 mps 730 mmHg 75%
19:00 -1°C° 0 mm 6 mps 730 mmHg 73%
20:00 -1°C° 0 mm 6 mps 730 mmHg 74%
21:00 -2°C° 0 mm 6 mps 730 mmHg 75%
22:00 -2°C° 0 mm 6 mps 730 mmHg 76%
23:00 -2°C° 0 mm 6 mps 730 mmHg 78%

21 January, Thursday

Time Temperature Precipitation Wind Pressure Humidity
00:00 -2°C° 0 mm 6 mps 730 mmHg 80%
01:00 -2°C° 0 mm 6 mps 730 mmHg 82%
02:00 -2°C° 0 mm 6 mps 730 mmHg 83%
03:00 -2°C° 0 mm 6 mps 729 mmHg 85%
04:00 -2°C° 0 mm 6 mps 729 mmHg 87%
05:00 -1°C° 0 mm 5 mps 729 mmHg 87%
06:00 -1°C° 0 mm 5 mps 729 mmHg 87%
07:00 -1°C° 0 mm 5 mps 729 mmHg 87%
08:00 0°C° 0 mm 5 mps 729 mmHg 88%
09:00 0°C° 0 mm 5 mps 729 mmHg 89%
10:00 0°C° 0 mm 5 mps 728 mmHg 90%
11:00 +1°C° 0 mm 4 mps 728 mmHg 91%
12:00 +1°C° 0 mm 4 mps 728 mmHg 93%
13:00 +3°C° 0 mm 4 mps 728 mmHg 95%
14:00 +1°C° 0 mm 4 mps 727 mmHg 94%
15:00 +2°C° 0 mm 3 mps 727 mmHg 93%
16:00 +1°C° 0 mm 3 mps 726 mmHg 93%
17:00 0°C° 0 mm 4 mps 726 mmHg 89%
18:00 -1°C° 0 mm 5 mps 726 mmHg 85%
19:00 -2°C° 0 mm 6 mps 726 mmHg 81%
20:00 -2°C° 0 mm 6 mps 726 mmHg 80%
21:00 -2°C° 0 mm 6 mps 726 mmHg 80%
22:00 -1°C° 0 mm 5 mps 726 mmHg 79%
23:00 0°C° 0 mm 5 mps 726 mmHg 82%

22 January, Friday

Time Temperature Precipitation Wind Pressure Humidity
00:00 -1°C° 0 mm 6 mps 726 mmHg 85%
01:00 +1°C° 0 mm 6 mps 725 mmHg 88%
02:00 +1°C° 0 mm 5 mps 725 mmHg 88%
03:00 +1°C° 0 mm 5 mps 724 mmHg 87%
04:00 +1°C° 0 mm 4 mps 724 mmHg 87%
05:00 +1°C° 0 mm 4 mps 723 mmHg 87%
06:00 0°C° 0 mm 4 mps 723 mmHg 87%
07:00 0°C° 0 mm 4 mps 722 mmHg 87%
08:00 +1°C° 0 mm 4 mps 722 mmHg 89%
09:00 +1°C° 0 mm 4 mps 722 mmHg 91%
10:00 +1°C° 0 mm 4 mps 721 mmHg 93%
11:00 +1°C° 0 mm 4 mps 721 mmHg 93%
12:00 +2°C° 0 mm 5 mps 722 mmHg 93%
13:00 +2°C° 0 mm 5 mps 722 mmHg 93%
14:00 +2°C° 0 mm 5 mps 722 mmHg 92%
15:00 +1°C° 0 mm 4 mps 722 mmHg 92%
16:00 +1°C° 0 mm 4 mps 722 mmHg 91%
17:00 +2°C° 0.1 mm 3 mps 722 mmHg 91%
18:00 +2°C° 0.1 mm 3 mps 723 mmHg 91%
19:00 +2°C° 0.1 mm 2 mps 723 mmHg 91%
20:00 +2°C° 0.6 mm 2 mps 724 mmHg 92%
21:00 +1°C° 0.6 mm 2 mps 724 mmHg 94%
22:00 +1°C° 0.6 mm 2 mps 724 mmHg 96%
23:00 +1°C° 1.4 mm 2 mps 724 mmHg 97%

23 January, Saturday

Time Temperature Precipitation Wind Pressure Humidity
00:00 -1°C° 1.4 mm 3 mps 725 mmHg 98%
01:00 -1°C° 1.4 mm 3 mps 725 mmHg 98%
02:00 -1°C° 0.3 mm 2 mps 725 mmHg 98%
03:00 -1°C° 0.3 mm 2 mps 725 mmHg 98%
04:00 +1°C° 0.3 mm 1 mps 726 mmHg 97%
05:00 +1°C° 0 mm 1 mps 726 mmHg 96%
06:00 -1°C° 0 mm 2 mps 726 mmHg 95%
07:00 -1°C° 0 mm 2 mps 726 mmHg 94%
08:00 -1°C° 0 mm 2 mps 726 mmHg 94%
09:00 -1°C° 0 mm 2 mps 727 mmHg 93%
10:00 0°C° 0 mm 3 mps 727 mmHg 92%
11:00 0°C° 0 mm 3 mps 727 mmHg 92%
12:00 0°C° 0 mm 3 mps 727 mmHg 91%
13:00 +1°C° 0 mm 3 mps 727 mmHg 91%
14:00 +1°C° 0 mm 2 mps 726 mmHg 91%
15:00 +1°C° 0 mm 2 mps 726 mmHg 92%
16:00 -1°C° 0 mm 2 mps 726 mmHg 93%
17:00 -1°C° 0 mm 2 mps 726 mmHg 92%
18:00 -1°C° 0 mm 3 mps 726 mmHg 92%
19:00 -2°C° 0 mm 3 mps 725 mmHg 92%
20:00 -2°C° 0 mm 3 mps 725 mmHg 92%
21:00 -2°C° 0 mm 3 mps 725 mmHg 91%
22:00 -2°C° 0 mm 3 mps 725 mmHg 91%
23:00 -1°C° 0 mm 3 mps 724 mmHg 90%
Show more

We Need Your Consent

Meteoprog and our Service Providers may store and access personal data such as cookies, device identifiers or other similar technologies on your device and process such data to personalise content and ads, as well as provide social media features and to analyse the traffic.

  • Store and/or access information on your device

    Cookies, device identifiers or other information can be stored or accessed on your device for the purposes indicated above.

  • Personalised ads and content, ad and content measurement, audience insights, and products development

    Ads and content can be personalised based on a profile. More data can be added to better personalise ads and content. Ad and content performance can be measured. Insights about the audience who saw the ads and content can be derived. Such data can be used to develop or improve user’s experience, systems and software.

By clicking ‘I Agree’ you will allow the use of indicated cookies, device identifiers, web beacons or other similar technologies. Your settings can be changed in the browser on your device.

For certain purposes, legitimate interests may be relied on, rather than consent. You can read more about this in our Privacy and Cookie Policy.